THORAD DELTA 1 DEB, 8403

Orbit data source: Space-Track

THORAD DELTA 1 DEB, 8403 is space debris in SSO originally from a launch on Fri, 15 Nov 1974 UTC launched from the Air Force Western Test Range (AFWTR). Debris objects in space refer to the collection of defunct objects orbiting the Earth. Examples of debris include non-operational satellites, rocket bodies, and fragments generated from explosions, collisions, or faulty payload assembly.

Loading next visibility...
Identifier
8403, 1974-089CF
Orbit
SSO
Country
Flag of USUS
Related business
Manufacturer
Unknown
Mission
Spacecraft
Bus & Motor
Unknown
Mass
Unknown
Launch date (UTC)
1974-11-15 (51 years ago)
Launch vehicle
Unknown
Launch site
Air Force Western Test Range (AFWTR)
Object type
Payload
Rocket body
Debris
Shape & HBR
Unknown shape, 0.1 m
Radar Cross Section
Small (<0.1 m²)

Expand to show TLE details & history
Last TLE update: 9 hours ago

TLE from 9 hours ago
0 THORAD DELTA 1 DEB
1  8403U 74089CF  26048.79619514  .00000057  00000-0  68166-3 0  9997
2  8403 101.5382 152.2816 0055323 268.6379 243.9570 12.47062623334611
Epoch: 2026-02-17T19:06Z
TLE epoch observation values (Epoch: 2026-02-17T19:06:31.260Z)
Latitude
27.39816°
Longitude
-96.0756°
Altitude
1,499.145 km
Speed
7.108 km/s
True Right ascension
22h 33m 18s
True Declination
27° 16' 16"
Sunlit
Object was in daylight at epoch
Visualization orbit readout
Latitude
Unknown
Longitude
Unknown
Altitude
Unknown
Speed
Unknown
Apparent Right ascension
Unknown
Apparent Declination
Unknown
Sunlit
N/A
Visualization observer readout
Local Sidereal Time
06:29:40
Azimuth
Unknown
Elevation
Unknown
Doppler factor
Unknown
Orbital elements
Apogee altitude
1,517.786 km
Perigee altitude
1,430.901 km
Semi-major axis
7,852.481 km
Eccentricity
0.00553
Inclination
101.5382°
RAAN
152.2816°
Arg. of periapsis
268.6379°
True anomaly
243.38915°
Mean anomaly
243.957°
Eccentric anomaly
243.6729°
Mean motion
3.11913 °/min
Orbital period
115.42 mins
BSTAR
0.00068166
Loading maneuver chart data...
Computing Atmospheric mass density...

Documentation

Showing up to 5 results
|